Regional Weather Roundup
Issued by NWS

Home | Current Version | Previous Version | Text Only | Print | Product List | Glossary Off
Versions: 1 2 3 4 5 6 7 8 9 10 11 12 13 14 15 16 17 18 19 20 21 22 23 24 25 26 27 28 29 30 31 32 33 34 35 36 37 38 39 40 41 42 43 44 45 46 47 48 49 50

000
ASUS43 KMPX 210610
RWRMN
WEATHER ROUNDUP FOR MINNESOTA
NATIONAL WEATHER SERVICE TWIN CITIES/CHANHASSEN MN
100 AM CDT SUN SEP 21 2014


NOTE: "FAIR" INDICATES FEW OR NO CLOUDS BELOW 12,000 FEET WITH NO
SIGNIFICANT WEATHER AND/OR OBSTRUCTIONS TO VISIBILITY. N/A MEANS
CURRENT SKY AND/OR WEATHER CONDITIONS ARE NOT AVAILABLE.

MNZ060>063-068>070-210700-
   Twin Cities Metro

CITY           SKY/WX    TMP DP  RH WIND       PRES   REMARKS
TWIN CITIES    PTCLDY    57  50  77 W12       29.85S
6HR MIN TEMP:  57; 6HR MAX TEMP:  60;

ST PAUL        CLEAR     57  50  77 W15       29.84S
CRYSTAL        CLEAR     58  49  72 NW14G24   29.84R
BLAINE         CLEAR     57  52  82 W15       29.84S
LAKEVILLE      PTCLDY    55  52  88 W10       29.85F
EDEN PRAIRIE   MOCLDY    58  51  78 W12       29.85F
6HR MIN TEMP:  56; 6HR MAX TEMP:  61;

SOUTH ST PAUL  PTCLDY    58  50  74 W12G17    29.83F
LAKE ELMO      FAIR      55  50  82 NW17G23   29.83S
$$
MNZ001>005-007-008-013>017-022>024-027-028-210700-
   Northwest Minnesota

CITY           SKY/WX    TMP DP  RH WIND       PRES   REMARKS
BEMIDJI        CLOUDY    49  47  95 NW8       29.93R
HALLOCK        CLEAR     52  48  87 NW6       29.98R
ROSEAU         HVY RAIN  52  46  82 NW5       29.95R
WARROAD        DRIZZLE   50  46  87 W5        29.95R
THIEF RVR FALL MOCLDY    52  50  93 NW8       29.97R
CROOKSTON      PTCLDY    52  50  93 NW7       29.99R
FOSSTON        CLOUDY    48  48 100 NW8       29.97R
DETROIT LAKES  CLEAR     52  50  93 NW10      29.97R
MOORHEAD       MOCLDY    55  54  94 NW9       30.00R
PARK RAPIDS    PTCLDY    50  48  93 N9        29.92R
MAHNOMEN       MOCLDY    51  50  97 NW8       29.97R
$$
MNZ006-009>011-018-025>026-210700-
   North Central Minnesota

CITY           SKY/WX    TMP DP  RH WIND       PRES   REMARKS
BAUDETTE       LGT RAIN  50  47  89 NW7       29.92R
FLAG ISLAND    LGT RAIN  52  48  87 W6        29.91S
INTL FALLS     LGT RAIN  50  48  93 NW9G21    29.88R
6HR MIN TEMP:  50; 6HR MAX TEMP:  56; 6HR PCP:  0.23;

WASKISH        RAIN      50  48  93 N5        29.93R
BIG FORK       LGT RAIN  50  48  93 NW5       29.89R
LONGVILLE      CLOUDY    52  48  87 NW7       29.90R
GRAND RAPIDS   CLOUDY    50  46  87 NW16G22   29.86R
CRANE LAKE     CLOUDY    52  52 100 NW7       29.85R
ORR            DRIZZLE   52  48  87 NW6       29.82R
COOK           RAIN      52  52 100 NW7       29.83R
WALKER         CLOUDY    48  47  95 NW7       29.92R
$$
MNZ012-019>021-037-210700-
   Northeast Minnesota

CITY           SKY/WX    TMP DP  RH WIND       PRES   REMARKS
DULUTH         LGT RAIN  53  50  89 NW12      29.76R
6HR MIN TEMP:  53; 6HR MAX TEMP:  56; 6HR PCP:  0.56;

ELY            DRIZZLE   52  50  93 N3        29.79R
HIBBING        LGT RAIN  52  49  89 NW16      29.81R
EVELETH        DRIZZLE   52  50  93 N9        29.80R
DULUTH HARBOR  RAIN      54  54 100 NW14G20   29.75R
TWO HARBORS    CLOUDY    54  48  82 N3        29.73R
SILVER BAY     CLOUDY    52  52 100 CALM      29.73R
GRAND MARAIS     N/A     53  51  93 VRB6      29.76R
G MARAIS ARPRT DRIZZLE   48  45  87 N12       29.78R
$$
MNZ029>031-032-039>041-046>048-054>057-064-210700-
   West Central Minnesota

CITY           SKY/WX    TMP DP  RH WIND       PRES   REMARKS
FERGUS FALLS   PTCLDY    48  48 100 NW8       29.98R
WHEATON        PTCLDY    54  45  71 NW9       30.01R
MORRIS         CLEAR     52  48  87 NW9       29.96
ALEXANDRIA     CLEAR     53  49  86 W12       29.95R
ELBOW LAKE     FAIR      51  49  92 W8        29.97R
WADENA         CLEAR     50  48  93 NW8       29.93R
GLENWOOD       CLEAR     54  48  82 NW12      29.94R
APPLETON       CLEAR     57  46  67 NW10      29.96R
BENSON         CLEAR     52  46  82 N7        29.96R
ORTONVILLE     CLEAR     59  45  58 NW12      29.98R
MADISON        CLEAR     59  46  63 NW8       29.98R
WILLMAR        FAIR      54  48  82 NW8       29.95S
$$
MNZ033>034-036-042>043-049>051-058-059-210700-
   Central Minnesota

CITY           SKY/WX    TMP DP  RH WIND       PRES   REMARKS
ST CLOUD       CLEAR     56  49  77 NW9       29.88R
6HR MIN TEMP:  56; 6HR MAX TEMP:  63;

SAUK CENTRE    FAIR      51  49  93 W7        29.92R
PAYNESVILLE    CLEAR     51  48  90 W8        29.92R
AITKIN         CLOUDY    52  46  82 NW5       29.85S
PINE RIVER     CLOUDY    52  46  82 NW9       29.93R
BRAINERD       MOCLDY    51  47  86 NW16      29.90R
STAPLES        PTCLDY    50  45  81 NW7       29.92R
LONG PRAIRIE   FAIR      50  48  93 W9        29.92R
LITTLE FALLS   CLEAR     52  45  76 NW8       29.90R
LITCHFIELD     CLEAR     57  54  88 W10       29.91S
BUFFALO        CLEAR     56  49  79 W10       29.88S
MAPLE LAKE     CLEAR     56  52  86 W7        29.89R
$$
MNZ037-044-045-052-053-210700-
   East Central Minnesota

CITY           SKY/WX    TMP DP  RH WIND       PRES   REMARKS
PRINCETON      CLEAR     55  48  76 W12       29.86S
MORA           PTCLDY    50  45  81 NW10      29.85S
CAMBRIDGE      CLEAR     55  45  67 W13G18    29.82S
RUSH CITY      MOCLDY    53  46  77 NW12G18   29.82R
MOOSE LAKE     LGT RAIN  50  46  87 NW12      29.79R
HINCKLEY       MOCLDY    52  46  82 NW14G22   29.81R
CLOQUET        LGT RAIN  52  48  87 NW15G22   29.78R
MCGREGOR       CLOUDY    50  46  87 NW13G20   29.85R
$$
MNZ071>073-080-081-089-090-097-098-210700-
   Southwest Minnesota

CITY           SKY/WX    TMP DP  RH WIND       PRES   REMARKS
MONTEVIDEO     CLEAR     55  48  76 N10       29.97R
GRANITE FALLS  CLEAR     54  48  78 W13G18    29.98R
CANBY          CLEAR     60  44  55 NW17      30.00R
MARSHALL       CLEAR     57  43  58 NW14      29.96S
REDWOOD FALLS  CLEAR     56  48  74 NW10      29.94R
OLIVIA         CLEAR     54  50  87 W7        29.93R
PIPESTONE      CLEAR     57  45  62 NW12      30.02S
WINDOM         CLEAR     54  46  76 W7        29.97S
WORTHINGTON    CLEAR     55  45  67 W14       30.01S
JACKSON        CLEAR     59  45  58 W12G17    29.98S
TRACY          CLEAR     58  46  64 W8        29.97F
SLAYTON        CLEAR     57  43  59 W10       30.01S
$$
MNZ065>067-074>077-082>085-091>093-210700-
   South Central Minnesota

CITY           SKY/WX    TMP DP  RH WIND       PRES   REMARKS
MANKATO        CLEAR     55  48  76 NW8       29.91S
NEW ULM        CLEAR     54  52  94 W9        29.93R
ST JAMES       CLEAR     57  48  72 W10       29.94F
FAIRMONT       CLEAR     59  45  58 W15       29.95S
GLENCOE        CLEAR     56  51  81 W8        29.89S
FARIBAULT      CLEAR     59  52  77 W10       29.89S
OWATONNA       PTCLDY    55  54  94 W7        29.89F
WASECA         CLEAR     52  48  87 W7        29.92S
ALBERT LEA     CLEAR     55  55 100 W6        29.91S
$$
MNZ078>079-086>088-094>096-210700-
   Southeast Minnesota

CITY           SKY/WX    TMP DP  RH WIND       PRES   REMARKS
ROCHESTER      CLOUDY    55  52  89 W10G17    29.87F
6HR MIN TEMP:  54; 6HR MAX TEMP:  64; 6HR PCP:  0.10;

RED WING       CLEAR     57  52  82 W10       29.80F
STANTON        CLEAR     57  51  80 W8        29.85F
DODGE CENTER   PTCLDY    55  54  94 W14       29.87F
WINONA         CLEAR     59  50  72 W17       29.81F
AUSTIN         CLOUDY    55  54  94 W8        29.89S
PRESTON        MOCLDY    54  54 100 W12       29.87S
$$
ABBREVIATIONS USED IN REMARKS
   TC - TEMPERATURES IN CELSIUS
  WCI - WIND CHILL INDEX
   HX - HEAT INDEX
  VSB - VISIBILITY
$$


USA.gov is the U.S. government's official web portal to all federal, state and local government web resources and services.